Terminal Aerodrome Forecast
Issued by NWS Wichita, KS

Home | Current Version | Previous Version | Graphics & Text | Print | Product List | Glossary On
Versions: 1 2 3 4 5 6 7 8 9 10 11 12 13 14 15 16 17 18 19 20 21 22 23
000
FTUS43 KICT 311905 AAA
TAFICT
TAF AMD
KICT 311905Z 3119/0118 17013KT 4SM -RA SCT005 OVC007
     FM010600 23009KT P6SM -RA SCT005 OVC007
     FM011200 33018G25KT P6SM SCT007 BKN015=

USA.gov is the U.S. government's official web portal to all federal, state and local government web resources and services.